Weather History for Gainesville, GA

Change the Weather History Date:

Monday, February 6, 2012

  Actual Average Record
Temperature  
Mean Temperature 46 °F 44 °F  
Max Temperature 52 °F 53 °F 71 °F (1938)
Min Temperature 39 °F 35 °F 12 °F (1984)
Degree Days  
Heating Degree Days 20 21  
Month to date heating degree days 130  
Since 1 July heating degree days 2048  
Moisture  
Dew Point 40 °F    
Average Humidity 79    
Maximum Humidity 96    
Minimum Humidity 66    
Precipitation  
Precipitation 0.00 in 0.15 in 1.33 in (1955)
Month to date precipitation 0.94  
Year to date precipitation 5.97  
Snow  
Snow 0.00 in - - ()
Month to date snowfall  
Since 1 July snowfall  
Snow Depth -    
Sea Level Pressure  
Sea Level Pressure 30.17 in    
Wind  
Wind Speed 9 mph (East)    
Max Wind Speed 14 mph    
Max Gust Speed 22 mph    
Visibility 10 miles    
Events      
T = Trace of Precipitation, MM = Missing Value Source: NWS Daily Summary

Daily Weather History Graph

Daily Weather History Graph

Search for Another Location

Airport:

Trip Planner

Search our weather history database for the weather conditions in past years. The results will help you decide how hot, cold, wet, or windy it might be!

Date:

Astronomy

Feb. 06, 2012 Rise Set
Actual Time 7:29 AM EST 6:09 PM EST
Civil Twilight 7:03 AM EST 6:36 PM EST
Nautical Twilight 6:33 AM EST 7:05 PM EST
Astronomical Twilight 6:04 AM EST 7:35 PM EST
Moon 5:12 PM EST (2/6) 6:18 AM EST (2/6)
Length of Visible Light 11h 32m
Length of Day
10h 40m
Waxing Gibbous, 98% of the Moon is Illuminated
Feb 6
Waxing Gibbous
Feb 7
Full
Feb 14
Last Quarter
Feb 21
New
Feb 29
First Quarter

Hourly Weather History & Observations

Time (EST) Temp. Windchill Dew Point Humidity Pressure Visibility Wind Dir Wind Speed Gust Speed Precip Events Conditions
12:53 AM 48.9 °F - 45.0 °F 86% 30.13 in 10.0 mi East 10.4 mph - N/A   Scattered Clouds
1:01 AM 48.2 °F - 44.6 °F 87% 30.15 in 10.0 mi East 13.8 mph - N/A   Mostly Cloudy
1:23 AM 48.2 °F - 44.6 °F 87% 30.15 in 9.0 mi East 13.8 mph - N/A   Overcast
1:53 AM 48.0 °F - 45.0 °F 89% 30.14 in 9.0 mi East 17.3 mph - N/A   Overcast
2:20 AM 48.2 °F - 44.6 °F 87% 30.16 in 10.0 mi East 12.7 mph - N/A   Overcast
2:53 AM 48.0 °F - 44.1 °F 86% 30.14 in 10.0 mi ENE 13.8 mph 21.9 mph N/A   Overcast
3:53 AM 48.0 °F - 44.1 °F 86% 30.16 in 10.0 mi East 10.4 mph - N/A   Overcast
4:53 AM 46.9 °F - 42.1 °F 83% 30.15 in 10.0 mi East 12.7 mph - N/A   Overcast
5:02 AM 46.4 °F 40.7 °F 42.8 °F 87% 30.17 in 10.0 mi East 12.7 mph 19.6 mph N/A   Overcast
5:13 AM 46.4 °F 41.9 °F 41.0 °F 81% 30.18 in 10.0 mi East 9.2 mph 19.6 mph N/A   Overcast
5:28 AM 46.4 °F 41.9 °F 39.2 °F 76% 30.18 in 10.0 mi East 9.2 mph - N/A   Overcast
5:53 AM 46.0 °F 42.5 °F 41.0 °F 83% 30.17 in 10.0 mi ENE 6.9 mph - N/A   Mostly Cloudy
6:09 AM 44.6 °F 39.2 °F 39.2 °F 81% 30.18 in 10.0 mi East 10.4 mph - N/A   Mostly Cloudy
6:46 AM 44.6 °F 39.2 °F 37.4 °F 76% 30.19 in 10.0 mi East 10.4 mph - N/A   Mostly Cloudy
6:53 AM 44.1 °F 39.5 °F 37.0 °F 76% 30.18 in 10.0 mi East 8.1 mph - N/A   Mostly Cloudy
7:53 AM 44.1 °F 38.6 °F 37.0 °F 76% 30.20 in 10.0 mi East 10.4 mph - N/A   Overcast
8:53 AM 45.0 °F 40.1 °F 37.0 °F 74% 30.22 in 10.0 mi ENE 9.2 mph - N/A   Overcast
9:53 AM 45.0 °F 40.1 °F 37.0 °F 74% 30.23 in 10.0 mi East 9.2 mph - N/A   Overcast
10:53 AM 46.0 °F 41.0 °F 37.0 °F 71% 30.24 in 10.0 mi East 10.4 mph - N/A   Overcast
11:53 AM 48.0 °F - 37.9 °F 68% 30.22 in 10.0 mi Variable 5.8 mph - N/A   Overcast
12:53 PM 48.0 °F - 39.0 °F 71% 30.21 in 10.0 mi East 4.6 mph - N/A   Overcast
1:53 PM 48.9 °F - 39.0 °F 69% 30.18 in 10.0 mi Calm Calm - N/A   Overcast
2:53 PM 51.1 °F - 39.9 °F 66% 30.17 in 10.0 mi Calm Calm - N/A   Overcast
3:53 PM 52.0 °F - 41.0 °F 66% 30.15 in 10.0 mi SSW 4.6 mph - N/A   Mostly Cloudy
4:03 PM 51.8 °F - 41.0 °F 67% 30.15 in 10.0 mi Variable 5.8 mph - N/A   Mostly Cloudy
4:53 PM 52.0 °F - 41.0 °F 66% 30.14 in 10.0 mi WSW 4.6 mph - N/A   Clear
5:53 PM 50.0 °F - 41.0 °F 71% 30.14 in 10.0 mi WSW 4.6 mph - N/A   Clear
6:53 PM 48.0 °F - 41.0 °F 77% 30.15 in 10.0 mi Calm Calm - N/A   Clear
7:53 PM 46.9 °F - 41.0 °F 80% 30.16 in 10.0 mi SW 4.6 mph - N/A   Clear
8:53 PM 44.1 °F 41.5 °F 39.9 °F 85% 30.16 in 10.0 mi SSE 4.6 mph - N/A   Clear
9:53 PM 42.1 °F - 39.0 °F 89% 30.17 in 10.0 mi Calm Calm - N/A   Clear
10:53 PM 39.9 °F - 37.9 °F 93% 30.17 in 8.0 mi Calm Calm - N/A   Clear
11:53 PM 41.0 °F 39.0 °F 39.9 °F 96% 30.17 in 8.0 mi West 3.5 mph - N/A   Clear